Flag for Canada Weather past 2 weeks in Laval, Quebec, Canada

Now
50 °F

Partly sunny.


Feels Like: 45 °F
Forecast: 40 / 49 °F
Wind: 15 mph from Northwest

Location: Montreal / Mirabel


UV Index: 0 (Low)

Visibility: 45 mi


Pressure: 29.67 "Hg

Humidity: 47%

Dew point: 30 °F

Location of LavalLocation

Historic Weather in Laval

°F

Laval temperature yesterday

Maximum temperature yesterday: 50 °F (at 12:00 AM)
Minimum temperature yesterday: 45 °F (at 4:00 PM)
Average temperature yesterday: 46 °F

Past Weeks' High & Low Weather Summary

 TemperatureHumidityPressure
High63 °F (Apr 21, 2:00 PM)100% (Apr 8, 2:00 PM)30.80 "Hg (Apr 8, 2:00 PM)
Low18 °F (Apr 16, 5:00 AM)20% (Apr 20, 2:00 PM)29.23 "Hg (Apr 8, 2:00 PM)
Average41 °F65%30.00 "Hg
* Reported Apr 8 2:00 PM — Apr 23 2:00 PM, Laval, Weather by CustomWeather, © 2014

Note: Actual official high and low records may vary slightly from our data, if they occured in-between our weather recording intervals... More about our weather records

Advertising

Historic Weather Conditions — Data for Previous 24 hours

 ConditionsComfort  
Time TempWeatherWind HumidityBarometerVisibility
2:00 PM
Apr 23
50 °FPartly sunny.15 mph47%29.67 "Hg45 mi
1:00 PM50 °FPartly sunny.20 mph47%29.65 "Hg45 mi
12:00 PM50 °FBroken clouds.14 mph50%29.65 "Hg45 mi
11:00 AM48 °FPartly sunny.16 mph54%29.65 "Hg45 mi
10:00 AM46 °FPartly sunny.12 mph57%29.65 "Hg40 mi
9:00 AM46 °FPartly sunny.12 mph62%29.65 "Hg40 mi
8:00 AM43 °FScattered clouds.6 mph71%29.63 "Hg25 mi
7:00 AM41 °FScattered clouds.6 mph81%29.62 "Hg25 mi
6:00 AM41 °FPassing clouds.7 mph81%29.59 "Hg25 mi
5:00 AM43 °FLight rain. Overcast.7 mph81%29.57 "Hg15 mi
4:00 AM43 °FLight rain. Overcast.6 mph81%29.55 "Hg15 mi
3:00 AM43 °FOvercast.7 mph81%29.53 "Hg15 mi
2:00 AM43 °FOvercast.7 mph87%29.53 "Hg15 mi
1:00 AM45 °FOvercast.10 mph81%29.52 "Hg15 mi
12:00 AM45 °FOvercast.6 mph87%29.52 "Hg15 mi
11:00 PM
Apr 22
45 °FOvercast.6 mph87%29.51 "Hg15 mi
10:00 PM45 °FOvercast.3 mph100%29.51 "Hg15 mi
9:00 PM45 °FMostly cloudy.2 mph100%29.49 "Hg10 mi
8:00 PM45 °FLight rain. Fog.2 mph100%29.48 "Hg5 mi
7:00 PM45 °FLight rain. Fog.3 mph100%29.48 "Hg3 mi
6:00 PM45 °FLight rain. Fog.2 mph100%29.47 "Hg2 mi
5:00 PM45 °FLight rain. Fog.7 mph100%29.46 "Hg2 mi
4:00 PM45 °FLight rain. Fog.7 mph100%29.46 "Hg1 mi
3:00 PM46 °FLight rain. Fog.6 mph93%29.48 "Hg1 mi
Weather by CustomWeather, © 2014

See weather overview